Reynoldsville, PA

4:39 PM EST on February 24, 2017 (GMT -0500)
Du Bois-Jefferson County

Weather History for KDUJ - October, 2012

Change the Weather History Date:

Saturday, October 27, 2012

  Actual Average Record
Temperature  
Mean Temperature 54 °F 46 °F  
Max Temperature 62 °F 55 °F 76 °F (1963)
Min Temperature 45 °F 37 °F 22 °F (1976)
Degree Days  
Heating Degree Days 11 19  
Month to date heating degree days 328 416  
Since 1 July heating degree days 551 662  
Cooling Degree Days 0 0  
Month to date cooling degree days 3 0  
Year to date cooling degree days 548 360  
Growing Degree Days 2 (Base 50)    
Moisture  
Dew Point 49 °F    
Average Humidity 79    
Maximum Humidity 93    
Minimum Humidity 64    
Precipitation  
Precipitation 0.02 in 0.11 in 1.51 in (1981)
Month to date precipitation 1.23 2.72  
Sea Level Pressure  
Sea Level Pressure 29.96 in    
Wind  
Wind Speed 9 mph (East)    
Max Wind Speed 15 mph    
Max Gust Speed 21 mph    
Visibility 8 miles    
Events      
T = Trace of Precipitation, MM = Missing Value Source: NWS Daily Summary

Daily Weather History Graph

Daily Weather History Graph

Search for Another Location

Airport or City:

Trip Planner

Search our weather history database for the weather conditions in past years. The results will help you decide how hot, cold, wet, or windy it might be!

Date:

Astronomy

Oct. 27, 2012 Rise Set
Actual Time 7:41 AM EDT 6:16 PM EDT
Civil Twilight 7:13 AM EDT 6:45 PM EDT
Nautical Twilight 6:40 AM EDT 7:17 PM EDT
Astronomical Twilight 6:08 AM EDT 7:49 PM EDT
Moon 5:02 PM EDT (10/27) 5:33 AM EDT (10/27)
Length of Visible Light 11h 32m
Length of Day
10h 35m
Waxing Gibbous, 96% of the Moon is Illuminated
Oct 27
Waxing Gibbous
Oct 29
Full
Nov 6
Last Quarter
Nov 13
New
Nov 20
First Quarter

Hourly Weather History & Observations

Time (EDT) Temp. Windchill Dew Point Humidity Pressure Visibility Wind Dir Wind Speed Gust Speed Precip Events Conditions
12:56 AM 57.9 °F - 52.0 °F 81% 30.02 in 10.0 mi East 3.5 mph - N/A   Overcast
1:56 AM 57.0 °F - 52.0 °F 83% 30.01 in 10.0 mi East 3.5 mph - N/A   Overcast
2:56 AM 57.0 °F - 52.0 °F 83% 29.99 in 8.0 mi East 5.8 mph - N/A   Overcast
3:56 AM 57.0 °F - 52.0 °F 83% 29.97 in 8.0 mi East 6.9 mph - N/A   Overcast
4:47 AM 57.2 °F - 51.8 °F 82% 29.97 in 9.0 mi East 5.8 mph - N/A   Overcast
4:56 AM 57.0 °F - 52.0 °F 83% 29.96 in 9.0 mi East 6.9 mph - N/A   Overcast
5:26 AM 57.2 °F - 51.8 °F 82% 29.97 in 8.0 mi ESE 6.9 mph - N/A   Overcast
5:56 AM 57.0 °F - 52.0 °F 83% 29.96 in 7.0 mi ESE 8.1 mph - N/A   Overcast
6:19 AM 57.2 °F - 51.8 °F 82% 29.97 in 7.0 mi ESE 5.8 mph - N/A   Overcast
6:35 AM 55.4 °F - 51.8 °F 88% 29.97 in 7.0 mi ESE 6.9 mph - N/A   Overcast
6:56 AM 55.9 °F - 52.0 °F 87% 29.96 in 7.0 mi ESE 6.9 mph - N/A   Overcast
7:56 AM 55.9 °F - 52.0 °F 87% 29.96 in 5.0 mi SE 6.9 mph - N/A   Overcast
8:05 AM 55.4 °F - 53.6 °F 94% 29.97 in 5.0 mi ESE 6.9 mph - N/A   Overcast
8:56 AM 57.0 °F - 53.1 °F 87% 29.97 in 6.0 mi SE 8.1 mph - N/A   Overcast
9:56 AM 57.9 °F - 52.0 °F 81% 29.97 in 10.0 mi SE 12.7 mph 19.6 mph N/A   Overcast
10:56 AM 60.1 °F - 52.0 °F 75% 29.96 in 10.0 mi SE 9.2 mph - N/A   Overcast
11:56 AM 61.0 °F - 50.0 °F 67% 29.95 in 10.0 mi Variable 5.8 mph - N/A   Overcast
1:56 PM 61.0 °F - 50.0 °F 67% 29.91 in 10.0 mi SSE 8.1 mph - N/A   Overcast
2:51 PM 60.8 °F - 50.0 °F 68% 29.91 in 10.0 mi South 6.9 mph - N/A   Overcast
2:56 PM 61.0 °F - 50.0 °F 67% 29.90 in 10.0 mi SW 8.1 mph - N/A   Overcast
3:26 PM 55.4 °F - 51.8 °F 88% 29.91 in 10.0 mi West 9.2 mph - N/A   Overcast
3:45 PM 53.6 °F - 50.0 °F 88% 29.92 in 10.0 mi West 9.2 mph - N/A   Overcast
3:56 PM 53.1 °F - 48.9 °F 86% 29.93 in 10.0 mi West 11.5 mph - N/A   Overcast
4:56 PM 52.0 °F - 46.9 °F 83% 29.93 in 10.0 mi WNW 9.2 mph - N/A   Overcast
5:22 PM 50.0 °F - 46.4 °F 87% 29.94 in 10.0 mi NW 8.1 mph - N/A   Overcast
5:56 PM 50.0 °F - 46.0 °F 86% 29.95 in 10.0 mi NNW 9.2 mph - N/A   Overcast
6:56 PM 48.0 °F - 45.0 °F 89% 29.98 in 10.0 mi North 9.2 mph - 0.00 in   Overcast
7:56 PM 46.9 °F - 44.1 °F 90% 29.99 in 5.0 mi North 10.4 mph - 0.01 in   Overcast
8:56 PM 46.0 °F 41.4 °F 44.1 °F 93% 29.98 in 4.0 mi North 9.2 mph - 0.01 in   Overcast
9:50 PM 46.4 °F 40.7 °F 42.8 °F 87% 29.97 in 4.0 mi NNE 12.7 mph - N/A   Overcast
9:56 PM 45.0 °F 39.3 °F 43.0 °F 93% 29.98 in 3.0 mi NNE 11.5 mph - N/A   Overcast
10:01 PM 44.6 °F 38.1 °F 42.8 °F 93% 29.97 in 3.0 mi NNE 13.8 mph - N/A   Overcast
10:56 PM 45.0 °F 38.5 °F 43.0 °F 93% 29.97 in 4.0 mi NNE 13.8 mph - N/A   Overcast
11:56 PM 45.0 °F 38.9 °F 43.0 °F 93% 29.97 in 6.0 mi NNE 12.7 mph - N/A   Overcast